Location: Los Gatos B&B
(42.6926°N, 77.0646°W)
Time: 09:32:24
(UTC-04:00)

Cosmos 2263 Rocket - Visible Passes

Search period start: 24 October 2014 00:00
Search period end: 02 November 2014 23:00
Orbit: 825 x 848 km, 71.0° (Epoch: 24 October)

Date Brightness Start Highest point End Pass type
(mag) Time Alt. Az. Time Alt. Az. Time Alt. Az.
27 Oct 4.3 07:00:56 10° SSE 07:05:49 33° ESE 07:10:43 10° NE visible
28 Oct 4.4 06:44:28 10° SSE 06:49:14 30° ESE 06:54:00 10° NE visible
29 Oct 4.5 06:28:01 10° SSE 06:32:38 28° ESE 06:37:17 10° NE visible
29 Oct 5.9 18:51:04 10° W 18:51:46 10° W 18:52:28 10° WSW visible
30 Oct 4.5 06:11:36 10° SSE 06:16:04 26° ESE 06:20:32 10° NE visible
30 Oct 5.8 18:33:29 10° WNW 18:35:13 11° W 18:36:57 10° WSW visible
31 Oct 4.6 05:55:11 10° SSE 05:59:29 24° ESE 06:03:47 10° NE visible
01 Nov 4.7 05:38:48 10° SSE 05:42:54 22° E 05:47:01 10° NE visible
02 Nov 4.7 04:22:26 10° SE 04:26:20 20° E 04:30:14 10° NE visible
02 Nov 2.2 06:04:17 10° SW 06:09:45 59° WNW 06:15:15 10° NNE visible
